LEDSAT

Last updated on Wed Oct 15 2025 00:03:08 GMT+0000 (Coordinated Universal Time)

1 49069U 21073D 25287.22280012 .04779575 24522-5 11441-2 0 9999 2 49069 97.3520 16.6384 0010161 280.7229 79.2921 16.29438138231363
UTC large
Height (km)
Speed (km/s)
/
Latitude / Longitude
Inclination (degrees)
Orbital Period (minutes)
Azimuth
Elevation
Range (km)
Doppler Factor

Next 0 passes for location: London (51.5072 / 0.1276)

Sorry there are no passes over London.